Location: Les Chemineaux
(47.3024°N, 1.5104°E)
Time: 07:14:06
(UTC+00:00)

Cosmos 1821 Rocket - Pass Details

Date: 19 May 2025
Orbit: 943 x 1004 km, 82.9° (Epoch: 18 June)

Event Time Altitude Azimuth Distance (km) Brightness Sun altitude
Rises 22:13:22 0° 348° (NNW) 3,639 8.5 -19.3°
Reaches altitude 10° 22:15:54 10° 346° (NNW) 2,684 7.5 -19.4°
Maximum altitude 22:21:56 64° 266° (W) 1,046 4.2 -19.8°
Enters shadow 22:25:07 28° 195° (SSW) 1,677 4.8 -20.0°
